This is the latest recevied weather packets stored in our database for station/object WB3EGK. If no packets are shown the sender has not sent any weather packets the latest 10 day(s).
| Time | Temp. | Humidity | Pressure | Rain* | Wind** | Luminosity | Snow |
|---|---|---|---|---|---|---|---|
| 1778197099 | 10° C | 1% | 1009.1 hPa | 0 mm | - | 39 W/m² | - |
| 1778196797 | 10° C | 1% | 1009.1 hPa | 0 mm | - | 50 W/m² | - |
| 1778196495 | 10° C | 1% | 1009 hPa | 0 mm | - | 58 W/m² | - |
| 1778196191 | 10° C | 1% | 1009.1 hPa | 0 mm | - | 54 W/m² | - |
| 1778195888 | 10.56° C | 1% | 1009.1 hPa | 0 mm | - | 48 W/m² | - |
| 1778195585 | 10° C | 1% | 1009 hPa | 0 mm | - | 107 W/m² | - |
| 1778195281 | 9.44° C | 1% | 1009.1 hPa | 0 mm | - | 123 W/m² | - |
| 1778194979 | 9.44° C | 1% | 1009.1 hPa | 0 mm | - | 173 W/m² | - |
| 1778194678 | 8.33° C | 1% | 1009.1 hPa | 0 mm | - | 150 W/m² | - |
| 1778194375 | 9.44° C | 1% | 1009.3 hPa | 0 mm | - | 45 W/m² | - |
| 1778194070 | 10° C | 1% | 1009.1 hPa | 0 mm | - | 25 W/m² | - |
| 1778193768 | 10° C | 1% | 1008.9 hPa | 0 mm | - | 42 W/m² | - |
| 1778193464 | 10.56° C | 1% | 1008.8 hPa | 0 mm | - | 36 W/m² | - |
| 1778193160 | 10.56° C | 1% | 1008.8 hPa | 0 mm | - | 70 W/m² | - |
| 1778192858 | 10.56° C | 1% | 1008.8 hPa | 0 mm | - | 85 W/m² | - |
| 1778192553 | 10.56° C | 1% | 1008.8 hPa | 0 mm | - | 80 W/m² | - |
| 1778192251 | 10.56° C | 1% | 1008.8 hPa | 0 mm | - | 81 W/m² | - |
| 1778191947 | 10.56° C | 1% | 1008.8 hPa | 0 mm | - | 84 W/m² | - |
| 1778191643 | 10.56° C | 1% | 1008.5 hPa | 0 mm | - | 93 W/m² | - |
| 1778191342 | 11.11° C | 1% | 1008.6 hPa | 0 mm | - | 140 W/m² | - |
| 1778191038 | 11.67° C | 1% | 1008.6 hPa | 0 mm | - | 391 W/m² | - |
| 1778190735 | 11.11° C | 1% | 1008.6 hPa | 0 mm | - | 299 W/m² | - |
| 1778190432 | 11.11° C | 1% | 1008.6 hPa | 0 mm | - | 135 W/m² | - |
| 1778190129 | 11.11° C | 1% | 1008.5 hPa | 0 mm | - | 128 W/m² | - |
| 1778189824 | 11.67° C | 1% | 1008.6 hPa | 0 mm | - | 155 W/m² | - |
* Rain latest hour (hover to see other rain measurements)
** Current wind speed in m/s (hover to see current wind gust speed)